CZ-4B DEB (44708 NORAD) Tracking and Keplerian Element Data

This shows tracking and keplerian element data for the satellite.

Feedback or suggestion? Click here.




ElementValue
Catalog44708
NameCZ-4B DEB
Epoch Orbit206
Epoch Day320.6070848
Epoch Year2019
RAAN33.4569
Inclination97.4939
Eccentricity0.0024985
Argument of Perigee245.4113
Mean Anonmoly226.9018
Mean Motion15.61579901
Decay Rate0.01311818
L11 44708U 19072F 19320.60708480 .01311818 00000-0 13499-1 0 9990
L22 44708 97.4939 33.4569 0024985 245.4113 226.9018 15.61579901 2064



Live tracking and technical data element details for CZ-4B DEB (NORAD 44708). CZ-4B DEB can be tracked NOW for your location showing map with azimuth and elevation plus other details from your city location.







IsCatalogInMostPopularTable: catalog: 44708, numindb: 178
Update: records affected: 1



GetName: 44708 CZ-4B DEB

Hit Count: updated at: Sun, 28 May 2023 07:34:46 GMT